Total_Precipitation_Accumulation
0.13 0.26 0.58 0.65 0.60 0.60 0.69 0.70 0.68 0.66 0.66 0.69 0.70 0.72 0.69 0.66 0.61 0.59 0.62 0.64 0.64 0.69 0.81 0.91 0.94 0.88 0.80 0.75 0.72 0.70 0.67 0.60 0.57 0.51 0.50 0.51 0.49 0.42 0.35 0.32 0.29 0.40 0.51
0.11 0.23 0.53 0.60 0.59 0.64 0.70 0.68 0.64 0.62 0.63 0.66 0.66 0.68 0.67 0.63 0.61 0.62 0.65 0.67 0.70 0.75 0.81 0.88 0.88 0.85 0.76 0.71 0.74 0.71 0.65 0.51 0.43 0.37 0.36 0.38 0.46 0.48 0.42 0.39 0.39 0.52 0.53
0.12 0.22 0.42 0.54 0.56 0.68 0.71 0.66 0.61 0.59 0.59 0.62 0.67 0.68 0.67 0.64 0.62 0.63 0.65 0.66 0.73 0.80 0.83 0.85 0.80 0.75 0.73 0.71 0.68 0.66 0.63 0.51 0.38 0.32 0.29 0.35 0.48 0.56 0.54 0.47 0.46 0.53 0.53
0.14 0.21 0.30 0.50 0.55 0.70 0.74 0.68 0.65 0.62 0.61 0.64 0.68 0.67 0.69 0.71 0.71 0.65 0.64 0.70 0.74 0.83 0.89 0.83 0.76 0.75 0.74 0.71 0.61 0.59 0.59 0.50 0.38 0.31 0.23 0.32 0.54 0.71 0.63 0.55 0.50 0.50 0.51
0.14 0.19 0.32 0.51 0.57 0.69 0.76 0.77 0.73 0.71 0.70 0.70 0.71 0.65 0.68 0.72 0.71 0.67 0.66 0.72 0.75 0.79 0.79 0.77 0.75 0.77 0.74 0.68 0.57 0.54 0.61 0.58 0.40 0.23 0.23 0.27 0.46 0.86 0.66 0.59 0.55 0.50 0.50
0.15 0.21 0.36 0.57 0.69 0.75 0.78 0.83 0.81 0.77 0.80 0.81 0.78 0.75 0.78 0.79 0.76 0.70 0.66 0.67 0.69 0.74 0.76 0.71 0.71 0.74 0.76 0.69 0.59 0.58 0.66 0.69 0.39 0.21 0.27 0.33 0.46 0.83 0.74 0.66 0.59 0.52 0.51
0.17 0.25 0.39 0.65 0.82 0.84 0.84 0.87 0.88 0.90 0.94 0.97 0.93 0.91 0.91 0.88 0.86 0.84 0.78 0.70 0.64 0.64 0.67 0.69 0.69 0.71 0.76 0.71 0.64 0.71 0.77 0.70 0.39 0.35 0.29 0.33 0.51 0.80 0.83 0.77 0.68 0.60 0.54
0.22 0.31 0.48 0.80 0.94 0.93 0.93 0.98 0.98 0.98 1.02 1.03 1.01 1.00 0.98 0.93 0.90 0.94 0.89 0.75 0.64 0.56 0.54 0.57 0.60 0.65 0.68 0.67 0.69 0.79 0.76 0.52 0.27 0.20 0.20 0.28 0.52 0.83 1.07 0.99 0.80 0.68 0.60
0.33 0.40 0.58 0.81 1.00 1.07 1.06 1.04 1.00 1.02 1.05 1.04 1.02 1.02 0.99 0.91 0.91 0.91 0.88 0.79 0.67 0.59 0.54 0.52 0.53 0.57 0.59 0.63 0.66 0.66 0.56 0.39 0.23 0.25 0.22 0.31 0.51 0.92 1.27 1.18 0.95 0.77 0.67
0.52 0.59 0.72 0.88 1.00 1.03 1.08 1.07 1.02 0.98 0.99 1.00 0.98 0.99 0.90 0.85 0.85 0.84 0.80 0.73 0.67 0.65 0.61 0.55 0.53 0.54 0.51 0.49 0.51 0.50 0.43 0.34 0.23 0.27 0.32 0.34 0.42 0.86 1.30 1.29 1.13 0.95 0.83
0.75 0.88 0.96 1.07 1.14 1.18 1.17 1.09 1.12 1.08 1.05 1.02 0.98 0.94 0.90 0.86 0.83 0.79 0.72 0.68 0.67 0.67 0.61 0.56 0.52 0.54 0.50 0.44 0.41 0.40 0.36 0.29 0.26 0.32 0.36 0.34 0.45 0.88 1.34 1.42 1.31 1.16 1.07
0.75 0.93 1.03 1.19 1.26 1.30 1.25 1.27 1.27 1.14 1.09 1.03 0.92 0.85 0.87 0.86 0.84 0.75 0.73 0.67 0.66 0.67 0.66 0.65 0.60 0.53 0.46 0.40 0.43 0.43 0.35 0.29 0.32 0.27 0.26 0.28 0.49 0.92 1.30 1.45 1.42 1.28 1.23
0.77 0.95 1.14 1.27 1.42 1.43 1.37 1.36 1.33 1.25 1.17 1.12 0.99 0.96 0.99 0.99 0.93 0.88 0.80 0.74 0.73 0.71 0.76 0.77 0.78 0.66 0.59 0.54 0.54 0.47 0.38 0.37 0.34 0.30 0.23 0.26 0.42 0.80 1.18 1.40 1.50 1.50 1.47
0.92 1.04 1.27 1.48 1.61 1.62 1.56 1.48 1.36 1.25 1.16 1.16 1.09 1.06 1.09 1.07 0.96 0.88 0.83 0.76 0.75 0.75 0.76 0.80 0.83 0.77 0.72 0.65 0.62 0.57 0.50 0.43 0.36 0.35 0.30 0.28 0.32 0.54 0.84 1.12 1.37 1.60 1.67
0.92 1.07 1.34 1.58 1.71 1.76 1.83 1.76 1.52 1.35 1.20 1.15 1.14 1.06 1.01 1.01 0.95 0.86 0.78 0.70 0.65 0.65 0.65 0.67 0.69 0.71 0.71 0.68 0.65 0.59 0.58 0.54 0.45 0.38 0.33 0.31 0.29 0.37 0.56 0.80 1.10 1.51 1.80
0.89 1.07 1.34 1.61 1.78 1.88 1.85 1.88 1.78 1.63 1.44 1.30 1.19 1.11 1.02 0.97 0.95 0.87 0.76 0.66 0.57 0.52 0.50 0.50 0.48 0.53 0.58 0.57 0.54 0.52 0.48 0.49 0.50 0.48 0.42 0.39 0.31 0.32 0.41 0.63 0.90 1.23 1.64
0.87 1.14 1.40 1.68 1.91 1.99 1.93 1.89 1.93 1.92 1.78 1.59 1.38 1.24 1.13 1.02 0.96 0.94 0.86 0.78 0.71 0.64 0.58 0.55 0.50 0.47 0.48 0.49 0.49 0.50 0.46 0.44 0.47 0.51 0.51 0.48 0.40 0.34 0.35 0.49 0.71 0.98 1.32
0.96 1.14 1.46 1.73 1.91 1.94 2.01 2.06 2.00 2.01 1.98 1.78 1.59 1.44 1.26 1.11 1.00 0.99 0.92 0.81 0.78 0.79 0.75 0.71 0.64 0.60 0.52 0.47 0.47 0.50 0.50 0.48 0.47 0.49 0.52 0.50 0.48 0.40 0.34 0.37 0.54 0.80 1.09
0.98 1.10 1.35 1.66 1.80 1.88 1.98 2.16 2.22 2.21 2.12 1.93 1.73 1.56 1.44 1.29 1.10 1.00 0.97 0.88 0.79 0.77 0.76 0.77 0.74 0.71 0.67 0.61 0.56 0.54 0.54 0.52 0.48 0.48 0.52 0.54 0.55 0.51 0.48 0.39 0.41 0.56 0.83
1.05 1.19 1.35 1.66 1.85 2.01 2.13 2.19 2.30 2.33 2.25 2.13 1.98 1.76 1.64 1.53 1.36 1.18 1.06 0.99 0.93 0.87 0.80 0.74 0.73 0.74 0.74 0.69 0.64 0.59 0.58 0.57 0.55 0.52 0.56 0.64 0.63 0.56 0.56 0.54 0.47 0.42 0.51
1.09 1.21 1.34 1.61 1.75 1.96 2.03 1.98 1.90 1.98 2.01 2.04 2.05 1.99 1.88 1.78 1.63 1.46 1.27 1.15 1.11 1.01 0.91 0.81 0.74 0.74 0.73 0.70 0.70 0.65 0.60 0.55 0.50 0.45 0.48 0.60 0.71 0.73 0.68 0.68 0.70 0.60 0.50
1.01 1.14 1.30 1.52 1.67 1.75 1.73 1.72 1.72 1.74 1.81 1.87 1.95 2.02 2.03 1.96 1.80 1.66 1.47 1.30 1.17 1.12 1.03 0.92 0.83 0.77 0.73 0.67 0.70 0.74 0.66 0.60 0.52 0.41 0.35 0.42 0.53 0.62 0.65 0.67 0.74 0.79 0.69
1.01 1.10 1.23 1.43 1.58 1.74 1.86 1.92 1.92 2.03 2.05 1.95 1.84 1.87 1.94 1.94 1.86 1.72 1.60 1.50 1.39 1.27 1.16 1.08 1.01 0.92 0.86 0.76 0.68 0.87 0.90 0.69 0.50 0.37 0.33 0.34 0.36 0.41 0.46 0.52 0.60 0.67 0.77
0.99 1.14 1.29 1.47 1.67 1.75 1.93 1.97 1.80 1.72 1.77 1.68 1.64 1.61 1.73 1.88 1.88 1.79 1.74 1.68 1.54 1.41 1.26 1.17 1.18 1.15 1.13 1.08 0.92 0.81 0.78 0.71 0.73 0.54 0.34 0.30 0.28 0.28 0.31 0.36 0.44 0.50 0.61
1.05 1.16 1.35 1.49 1.72 1.83 1.89 1.92 1.80 1.64 1.55 1.62 1.76 1.80 1.75 1.75 1.86 1.84 1.75 1.72 1.62 1.48 1.39 1.31 1.21 1.21 1.21 1.19 1.10 0.96 0.85 0.71 0.66 0.76 0.54 0.36 0.35 0.33 0.33 0.35 0.37 0.40 0.48
1.03 1.17 1.31 1.54 1.70 1.91 1.93 1.89 1.73 1.57 1.48 1.52 1.61 1.81 1.89 1.86 1.88 1.90 1.82 1.76 1.66 1.49 1.39 1.40 1.34 1.26 1.23 1.20 1.14 1.06 1.01 0.95 0.77 0.78 0.72 0.48 0.42 0.40 0.39 0.40 0.41 0.42 0.48